Simultaneous Nadir Overpasses (SNOs) Predictions

Prediction of SNOs between GOES-16 and AQUA Satellite Orbit:

Table of predicted SNOs for the next 14.0 days since TLE Epoch: 1/13/2017
Index Date Time (GOES-16) GOES-16 Lat,Lon AQUA Lat,Lon Distance(km) Time Diff (sec)
1 01/14/2017 19:34:07 -0.02, -89.48 -0.12, -90.01 59.84 80
2 01/16/2017 19:24:37 -0.02, -89.48 0.49, -87.05 276.71 80
3 01/17/2017 07:45:52 0.02, -89.48 0.61, -92.21 310.39 80
4 01/19/2017 07:31:03 0.02, -89.49 -0.01, -89.25 26.87 80
5 01/21/2017 07:18:53 0.02, -89.51 -0.63, -86.30 364.28 80
6 01/21/2017 19:40:17 -0.02, -89.52 -0.43, -91.50 224.67 80
7 01/23/2017 19:30:47 -0.03, -89.53 0.20, -88.54 113.22 80
8 01/24/2017 07:52:03 0.03, -89.54 0.90, -93.70 473.14 80
9 01/25/2017 19:18:37 -0.03, -89.55 0.83, -85.59 451.27 80
10 01/26/2017 07:39:53 0.03, -89.55 0.27, -90.75 135.10 80




NCC Satellite Simultaneous Nadir Overpasses (SNOs) Prediction Service
